Regional Weather Roundup
Issued by NWS Kansas City/Pleasant Hill, MO

Home | Current Version | Previous Version | Graphics & Text | Print | Product List | Glossary Off
Versions: 1 2 3 4 5 6 7 8 9 10 11 12 13 14 15 16 17 18 19 20 21 22 23 24 25 26 27 28 29 30 31 32 33 34 35 36 37 38 39 40 41 42 43 44 45 46 47 48 49 50

000
ASUS43 KEAX 311004
RWREAX

WEATHER ROUNDUP FOR EASTERN KANSAS AND NORTHWEST MISSOURI
NATIONAL WEATHER SERVICE KANSAS CITY/PLEASANT HILL MO
400 AM CST SAT JAN 31 2015

KSZ040-057-103>105-MOZ028-029-037-043-311100-
...KANSAS CITY METROPOLITAN AREA...

CITY           SKY/WX    TMP DP  RH WIND       PRES   REMARKS
K.C. INTL      LGT RAIN  34  30  85 SW3       30.28S
K.C. DOWNTOWN  LGT RAIN  38  28  67 CALM      30.28F
LEES SUMMIT    CLOUDY    37  21  52 SW5       30.28F WCI  33
OLATHE - IXD   LGT RAIN  34  28  79 SE6       30.28F WCI  29
OLATHE - OJC   LGT RAIN  35  28  75 CALM      30.27F
LAWRENCE       CLOUDY    34  31  88 E5        30.28F WCI  30

$$

MOZ001>008-011>017-020>025-030>033-038>040-044>046-053-054-311100-
...NORTHERN AND CENTRAL MISSOURI...

CITY           SKY/WX    TMP DP  RH WIND       PRES   REMARKS
ST. JOSEPH     CLOUDY    34  29  82 S6        30.28F WCI  29
MOSBY          DRIZZLE   32  27  80 CALM      30.30R
WARRENSBURG    CLOUDY    34  21  60 CALM      30.30S
WHITEMAN AFB   CLOUDY    34  22  61 S6        30.29S WCI  29
CLINTON        CLOUDY    36  27  69 SW3       30.31F
SEDALIA        CLOUDY    36  21  54 S5        30.30F WCI  32
WARSAW         NOT AVBL
MARSHALL       CLOUDY    32  27  80 SE3       30.31F
CHILLICOTHE      N/A     31  21  66 S6        30.29F WCI  25
MOBERLY        PTCLDY    30  18  59 S5        30.29F WCI  25
KIRKSVILLE     MOCLDY    29  20  69 S6        30.27F WCI  23

$$

MOZ041-047>049-056>058-063>065-088>090-097-311100-
...EASTERN AND SOUTHERN MISSOURI...

CITY           SKY/WX    TMP DP  RH WIND       PRES   REMARKS
ST. LOUIS INTL MOCLDY    32  20  61 S3        30.35S
SPIRIT OF STL  CLOUDY    27  22  81 CALM      30.33F
COLUMBIA       CLOUDY    31  21  66 S7        30.29F WCI  24
JEFFERSON CITY CLOUDY    30  23  75 E3        30.32F
MEXICO         FAIR      30  25  80 S5        30.30F WCI  25
HANNIBAL       MOCLDY    28  19  69 S7        30.30F WCI  21
ROLLA          CLOUDY    35  19  52 S9        30.28F WCI  28
LEBANON        CLOUDY    36  21  55 S7        30.30F WCI  30
OSAGE BEACH    CLOUDY    36  19  51 CALM      30.30F
SPRINGFIELD    CLOUDY    40  20  44 SE7       30.28F
NEVADA         DRIZZLE   36  32  87 CALM      30.30F
JOPLIN         LGT RAIN  41  28  60 E9        30.26F
WEST PLAINS    CLOUDY    34  23  64 S5        30.34F WCI  30

$$

IAZ060-094-KSZ022-034>040-054-083-096-NEZ052-066-093-311100-
...KANSAS...SOUTHEAST NEBRASKA AND IOWA...

CITY           SKY/WX    TMP DP  RH WIND       PRES   REMARKS
TOPEKA         LGT RAIN  35  34  96 SE3       30.28F FOG
MANHATTAN      LGT RAIN  36  35  96 CALM      30.25F FOG
EMPORIA        LGT RAIN  37  36  96 S6        30.24F WCI  32
CHANUTE        CLOUDY    40  37  89 SE8       30.26F WCI  34
WICHITA        CLOUDY    39  25  57 SE3       30.22F
OMAHA          CLOUDY    33  27  78 SE9       30.19F WCI  25
LINCOLN        CLOUDY    37  33  85 SW10      30.19F WCI  30
FALLS CITY     LGT RAIN  37  34  89 S6        30.24F WCI  32
LAMONI         CLOUDY    27  19  72 S8        30.24S WCI  19
DES MOINES     CLOUDY    30  21  69 SW3       30.20F

$$



USA.gov is the U.S. government's official web portal to all federal, state and local government web resources and services.